Time,TemperatureF,DewpointF,PressureIn,WindDirection,WindDirectionDegrees,WindSpeedMPH,WindSpeedGustMPH,Humidity,HourlyPrecipIn,Conditions,Clouds,dailyrainin,SoftwareType,DateUTC
2013-07-11 00:01:00,58.3,58.3,29.06,West,265,0.0,0.0,100,0.00,,---,0.00,VWS V14.01,2013-07-11 05:01:00,
2013-07-11 00:06:00,58.3,58.3,29.06,West,265,0.0,0.0,100,0.00,,---,0.00,VWS V14.01,2013-07-11 05:06:00,
2013-07-11 00:11:00,58.1,58.1,29.06,West,265,0.0,0.0,100,0.00,,---,0.00,VWS V14.01,2013-07-11 05:11:00,
2013-07-11 00:16:00,57.9,57.9,29.06,West,265,0.0,0.0,100,0.00,,---,0.00,VWS V14.01,2013-07-11 05:16:00,
2013-07-11 00:21:00,57.9,57.9,29.06,West,265,0.0,0.0,100,0.00,,---,0.00,VWS V14.01,2013-07-11 05:21:00,
2013-07-11 00:26:00,57.7,57.7,29.06,West,265,0.0,0.0,100,0.00,,---,0.00,VWS V14.01,2013-07-11 05:26:00,
2013-07-11 00:31:00,57.7,57.7,29.06,West,265,0.0,0.0,100,0.00,,---,0.00,VWS V14.01,2013-07-11 05:31:00,
2013-07-11 00:36:00,57.6,57.6,29.06,West,265,0.0,0.0,100,0.00,,---,0.00,VWS V14.01,2013-07-11 05:36:00,
2013-07-11 00:41:00,57.6,57.6,29.06,West,265,0.0,0.0,100,0.00,,---,0.00,VWS V14.01,2013-07-11 05:41:00,
2013-07-11 00:46:00,57.7,57.7,29.06,West,265,0.0,0.0,100,0.00,,---,0.00,VWS V14.01,2013-07-11 05:46:00,
2013-07-11 00:51:00,57.6,57.6,29.06,West,265,0.0,0.0,100,0.00,,---,0.00,VWS V14.01,2013-07-11 05:51:00,
2013-07-11 00:56:00,57.7,57.7,29.06,West,265,0.0,0.0,100,0.00,,---,0.00,VWS V14.01,2013-07-11 05:56:00,
2013-07-11 01:00:00,57.6,57.6,29.06,West,265,0.0,0.0,100,0.00,,---,0.00,VWS V14.01,2013-07-11 06:00:00,
2013-07-11 01:05:00,57.6,57.6,29.06,West,265,0.0,0.0,100,0.00,,---,0.00,VWS V14.01,2013-07-11 06:05:00,
2013-07-11 01:10:00,57.6,57.6,29.06,West,265,0.0,0.0,100,0.00,,---,0.00,VWS V14.01,2013-07-11 06:10:00,
2013-07-11 01:15:00,57.4,57.4,29.06,West,265,0.0,0.0,100,0.00,,---,0.00,VWS V14.01,2013-07-11 06:15:00,
2013-07-11 01:20:00,57.2,57.2,29.06,West,265,0.0,0.0,100,0.00,,---,0.00,VWS V14.01,2013-07-11 06:20:00,
2013-07-11 01:25:00,57.2,57.2,29.06,West,265,0.0,0.0,100,0.00,,---,0.00,VWS V14.01,2013-07-11 06:25:00,
2013-07-11 01:30:00,57.2,57.2,29.06,West,265,0.0,0.0,100,0.00,,---,0.00,VWS V14.01,2013-07-11 06:30:00,
2013-07-11 01:35:00,57.2,57.2,29.09,West,265,0.0,0.0,100,0.00,,---,0.00,VWS V14.01,2013-07-11 06:35:00,
2013-07-11 01:40:00,57.0,57.0,29.09,West,265,0.0,0.0,100,0.00,,---,0.00,VWS V14.01,2013-07-11 06:40:00,
2013-07-11 01:45:00,57.0,57.0,29.09,West,265,0.0,0.0,100,0.00,,---,0.00,VWS V14.01,2013-07-11 06:45:00,
2013-07-11 01:50:00,56.8,56.8,29.09,West,265,0.0,0.0,100,0.00,,---,0.00,VWS V14.01,2013-07-11 06:50:00,
2013-07-11 01:55:00,56.7,56.7,29.09,West,265,0.0,0.0,100,0.00,,---,0.00,VWS V14.01,2013-07-11 06:55:00,
2013-07-11 02:00:00,56.7,56.7,29.09,West,265,0.0,0.0,100,0.00,,---,0.00,VWS V14.01,2013-07-11 07:00:00,
2013-07-11 02:05:00,56.7,56.7,29.09,West,265,0.0,0.0,100,0.00,,---,0.00,VWS V14.01,2013-07-11 07:05:00,
2013-07-11 02:10:00,56.7,56.7,29.09,West,265,0.0,0.0,100,0.00,,---,0.00,VWS V14.01,2013-07-11 07:10:00,
2013-07-11 02:15:00,56.7,56.7,29.09,West,265,0.0,0.0,100,0.00,,---,0.00,VWS V14.01,2013-07-11 07:15:00,
2013-07-11 02:20:00,56.7,56.7,29.09,West,265,0.0,0.0,100,0.00,,---,0.00,VWS V14.01,2013-07-11 07:20:00,
2013-07-11 02:25:00,56.5,56.5,29.09,West,265,0.0,0.0,100,0.00,,---,0.00,VWS V14.01,2013-07-11 07:25:00,
2013-07-11 02:30:00,56.5,56.5,29.09,West,265,0.0,0.0,100,0.00,,---,0.00,VWS V14.01,2013-07-11 07:30:00,
2013-07-11 02:35:00,56.5,56.5,29.09,West,265,0.0,0.0,100,0.00,,---,0.00,VWS V14.01,2013-07-11 07:35:00,
2013-07-11 02:40:00,56.5,56.5,29.09,West,265,0.0,0.0,100,0.00,,---,0.00,VWS V14.01,2013-07-11 07:40:00,
2013-07-11 02:45:00,56.5,56.5,29.09,West,265,0.0,0.0,100,0.00,,---,0.00,VWS V14.01,2013-07-11 07:45:00,
2013-07-11 02:50:00,56.3,56.3,29.09,West,265,0.0,0.0,100,0.00,,---,0.00,VWS V14.01,2013-07-11 07:50:00,
2013-07-11 02:55:00,56.3,56.3,29.09,West,265,0.0,0.0,100,0.00,,---,0.00,VWS V14.01,2013-07-11 07:55:00,
2013-07-11 03:00:00,56.3,56.3,29.09,West,265,0.0,0.0,100,0.00,,---,0.00,VWS V14.01,2013-07-11 08:00:00,
2013-07-11 03:05:00,56.1,56.1,29.09,West,265,0.0,0.0,100,0.00,,---,0.00,VWS V14.01,2013-07-11 08:05:00,
2013-07-11 03:10:00,56.3,56.3,29.09,West,265,0.0,0.0,100,0.00,,---,0.00,VWS V14.01,2013-07-11 08:10:00,
2013-07-11 03:15:00,56.3,56.3,29.09,West,265,0.0,0.0,100,0.00,,---,0.00,VWS V14.01,2013-07-11 08:15:00,
2013-07-11 03:20:00,56.1,56.1,29.09,West,265,0.0,0.0,100,0.00,,---,0.00,VWS V14.01,2013-07-11 08:20:00,
2013-07-11 03:25:00,56.3,56.3,29.09,West,265,0.0,0.0,100,0.00,,---,0.00,VWS V14.01,2013-07-11 08:25:00,
2013-07-11 03:30:00,56.1,56.1,29.09,West,265,0.0,0.0,100,0.00,,---,0.00,VWS V14.01,2013-07-11 08:30:00,
2013-07-11 03:35:00,55.9,55.9,29.09,West,265,0.0,0.0,100,0.00,,---,0.00,VWS V14.01,2013-07-11 08:35:00,
2013-07-11 03:40:00,55.9,55.9,29.09,West,265,0.0,0.0,100,0.00,,---,0.00,VWS V14.01,2013-07-11 08:40:00,
2013-07-11 03:45:00,55.9,55.9,29.09,West,265,0.0,0.0,100,0.00,,---,0.00,VWS V14.01,2013-07-11 08:45:00,
2013-07-11 03:50:00,55.9,55.9,29.09,West,265,0.0,0.0,100,0.00,,---,0.00,VWS V14.01,2013-07-11 08:50:00,
2013-07-11 03:55:00,55.9,55.9,29.09,West,265,0.0,0.0,100,0.00,,---,0.00,VWS V14.01,2013-07-11 08:55:00,
2013-07-11 04:00:00,55.9,55.9,29.09,West,265,0.0,0.0,100,0.00,,---,0.00,VWS V14.01,2013-07-11 09:00:00,
2013-07-11 04:05:00,55.8,55.8,29.09,West,265,0.0,0.0,100,0.00,,---,0.00,VWS V14.01,2013-07-11 09:05:00,
2013-07-11 04:10:00,55.8,55.8,29.09,West,265,0.0,0.0,100,0.00,,---,0.00,VWS V14.01,2013-07-11 09:10:00,
2013-07-11 04:15:00,55.8,55.8,29.09,West,265,0.0,0.0,100,0.00,,---,0.00,VWS V14.01,2013-07-11 09:15:00,
2013-07-11 04:20:00,55.8,55.8,29.09,West,265,0.0,0.0,100,0.00,,---,0.00,VWS V14.01,2013-07-11 09:20:00,
2013-07-11 04:25:00,55.9,55.9,29.09,West,265,0.0,0.0,100,0.00,,---,0.00,VWS V14.01,2013-07-11 09:25:00,
2013-07-11 04:30:00,55.9,55.9,29.09,West,265,0.0,0.0,100,0.00,,---,0.00,VWS V14.01,2013-07-11 09:30:00,
2013-07-11 04:35:00,56.1,56.1,29.09,West,265,0.0,0.0,100,0.00,,---,0.00,VWS V14.01,2013-07-11 09:35:00,
2013-07-11 04:40:00,56.1,56.1,29.09,West,265,0.0,0.0,100,0.00,,---,0.00,VWS V14.01,2013-07-11 09:40:00,
2013-07-11 04:45:00,56.1,56.1,29.09,West,265,0.0,0.0,100,0.00,,---,0.00,VWS V14.01,2013-07-11 09:45:00,
2013-07-11 04:50:00,55.9,55.9,29.09,West,265,0.0,0.0,100,0.00,,---,0.00,VWS V14.01,2013-07-11 09:50:00,
2013-07-11 04:55:00,55.9,55.9,29.09,West,265,0.0,0.0,100,0.00,,---,0.00,VWS V14.01,2013-07-11 09:55:00,
2013-07-11 05:00:00,55.9,55.9,29.09,West,265,0.0,0.0,100,0.00,,---,0.00,VWS V14.01,2013-07-11 10:00:00,
2013-07-11 05:05:00,55.9,55.9,29.12,West,265,0.0,0.0,100,0.00,,---,0.00,VWS V14.01,2013-07-11 10:05:00,
2013-07-11 05:10:00,55.9,55.9,29.12,West,265,0.0,0.0,100,0.00,,---,0.00,VWS V14.01,2013-07-11 10:10:00,
2013-07-11 05:15:00,55.9,55.9,29.12,West,265,0.0,0.0,100,0.00,,---,0.00,VWS V14.01,2013-07-11 10:15:00,
2013-07-11 05:20:00,55.9,55.9,29.12,West,265,0.0,0.0,100,0.00,,---,0.00,VWS V14.01,2013-07-11 10:20:00,
2013-07-11 05:25:00,55.9,55.9,29.12,West,265,0.0,0.0,100,0.00,,---,0.00,VWS V14.01,2013-07-11 10:25:00,
2013-07-11 05:30:00,55.9,55.9,29.12,West,265,0.0,0.0,100,0.00,,---,0.00,VWS V14.01,2013-07-11 10:30:00,
2013-07-11 05:35:00,55.9,55.9,29.12,West,265,0.0,0.0,100,0.00,,---,0.00,VWS V14.01,2013-07-11 10:35:00,
2013-07-11 05:40:00,55.8,55.8,29.12,West,265,0.0,0.0,100,0.00,,---,0.00,VWS V14.01,2013-07-11 10:40:00,
2013-07-11 05:45:00,56.1,56.1,29.12,West,265,0.0,0.0,100,0.00,,---,0.00,VWS V14.01,2013-07-11 10:45:00,
2013-07-11 05:50:00,56.1,56.1,29.12,West,265,0.0,0.0,100,0.00,,---,0.00,VWS V14.01,2013-07-11 10:50:00,
2013-07-11 05:55:00,56.5,56.5,29.12,West,265,0.0,0.0,100,0.00,,---,0.00,VWS V14.01,2013-07-11 10:55:00,
2013-07-11 06:00:00,56.5,56.5,29.12,West,265,0.0,0.0,100,0.00,,---,0.00,VWS V14.01,2013-07-11 11:00:00,
2013-07-11 06:05:00,56.7,56.7,29.12,West,265,0.0,0.0,100,0.00,,---,0.00,VWS V14.01,2013-07-11 11:05:00,
2013-07-11 06:10:00,56.7,56.7,29.12,West,265,0.0,0.0,100,0.00,,---,0.00,VWS V14.01,2013-07-11 11:10:00,
2013-07-11 06:15:00,57.0,57.0,29.12,West,265,0.0,0.0,100,0.00,,---,0.00,VWS V14.01,2013-07-11 11:15:00,
2013-07-11 06:20:00,57.4,57.4,29.12,West,265,0.0,0.0,100,0.00,,---,0.00,VWS V14.01,2013-07-11 11:20:00,
2013-07-11 06:25:00,57.9,57.9,29.12,WSW,243,0.0,0.0,100,0.00,,---,0.00,VWS V14.01,2013-07-11 11:25:00,
2013-07-11 06:30:00,58.5,58.5,29.12,SW,231,2.2,2.2,100,0.00,,---,0.00,VWS V14.01,2013-07-11 11:30:00,
2013-07-11 06:35:00,59.0,59.0,29.12,SW,231,0.0,0.0,100,0.00,,---,0.00,VWS V14.01,2013-07-11 11:35:00,
2013-07-11 06:40:00,59.2,59.2,29.12,SW,231,0.0,0.0,100,0.00,,---,0.00,VWS V14.01,2013-07-11 11:40:00,
2013-07-11 06:45:00,59.5,59.5,29.12,SW,231,0.0,0.0,100,0.00,,---,0.00,VWS V14.01,2013-07-11 11:45:00,
2013-07-11 06:50:00,59.9,59.9,29.12,SW,231,0.0,0.0,100,0.00,,---,0.00,VWS V14.01,2013-07-11 11:50:00,
2013-07-11 06:55:00,60.1,60.1,29.12,SW,231,0.0,0.0,100,0.00,,---,0.00,VWS V14.01,2013-07-11 11:55:00,
2013-07-11 07:00:00,60.4,60.4,29.12,SW,231,0.0,0.0,100,0.00,,---,0.00,VWS V14.01,2013-07-11 12:00:00,
2013-07-11 07:05:00,60.4,60.4,29.15,WSW,249,0.0,0.0,100,0.00,,---,0.00,VWS V14.01,2013-07-11 12:05:00,
2013-07-11 07:10:00,60.6,60.6,29.15,WSW,249,0.0,0.0,100,0.00,,---,0.00,VWS V14.01,2013-07-11 12:10:00,
2013-07-11 07:15:00,61.0,61.0,29.15,WSW,249,0.0,0.0,100,0.00,,---,0.00,VWS V14.01,2013-07-11 12:15:00,
2013-07-11 07:20:00,61.3,61.3,29.15,WSW,249,0.0,0.0,100,0.00,,---,0.00,VWS V14.01,2013-07-11 12:20:00,
2013-07-11 07:25:00,61.7,61.7,29.15,WSW,249,0.0,0.0,100,0.00,,---,0.00,VWS V14.01,2013-07-11 12:25:00,
2013-07-11 07:30:00,61.9,61.9,29.15,WSW,249,0.0,0.0,100,0.00,,---,0.00,VWS V14.01,2013-07-11 12:30:00,
2013-07-11 07:35:00,62.2,62.2,29.15,WSW,249,0.0,0.0,100,0.00,,---,0.00,VWS V14.01,2013-07-11 12:35:00,
2013-07-11 07:40:00,62.4,62.4,29.15,WSW,249,0.0,0.0,100,0.00,,---,0.00,VWS V14.01,2013-07-11 12:40:00,
2013-07-11 07:45:00,62.6,62.6,29.15,WNW,284,0.0,0.0,100,0.00,,---,0.00,VWS V14.01,2013-07-11 12:45:00,
2013-07-11 07:50:00,63.0,63.0,29.15,SW,226,0.0,0.0,100,0.00,,---,0.00,VWS V14.01,2013-07-11 12:50:00,
2013-07-11 07:55:00,63.3,63.3,29.15,SW,226,0.0,0.0,100,0.00,,---,0.00,VWS V14.01,2013-07-11 12:55:00,
2013-07-11 08:00:00,63.5,63.5,29.15,SW,226,0.0,0.0,100,0.00,,---,0.00,VWS V14.01,2013-07-11 13:00:00,
2013-07-11 08:05:00,63.7,63.7,29.15,SW,226,0.0,0.0,100,0.00,,---,0.00,VWS V14.01,2013-07-11 13:05:00,
2013-07-11 08:10:00,64.0,64.0,29.15,SW,236,0.0,0.0,100,0.00,,---,0.00,VWS V14.01,2013-07-11 13:10:00,
2013-07-11 08:15:00,64.4,64.4,29.15,WNW,286,0.0,0.0,100,0.00,,---,0.00,VWS V14.01,2013-07-11 13:15:00,
2013-07-11 08:20:00,64.8,64.8,29.15,NNW,345,3.6,4.0,100,0.00,,---,0.00,VWS V14.01,2013-07-11 13:20:00,
2013-07-11 08:25:00,65.7,65.7,29.15,West,273,2.7,5.8,100,0.00,,---,0.00,VWS V14.01,2013-07-11 13:25:00,
2013-07-11 08:30:00,66.2,66.2,29.15,NW,315,0.0,3.1,100,0.00,,---,0.00,VWS V14.01,2013-07-11 13:30:00,
2013-07-11 08:35:00,66.6,66.6,29.15,NW,318,0.0,4.0,100,0.00,,---,0.00,VWS V14.01,2013-07-11 13:35:00,
2013-07-11 08:40:00,66.9,66.9,29.15,NW,317,2.7,3.6,100,0.00,,---,0.00,VWS V14.01,2013-07-11 13:40:00,
2013-07-11 08:45:00,67.5,67.5,29.15,NW,310,2.7,3.6,100,0.00,,---,0.00,VWS V14.01,2013-07-11 13:45:00,
2013-07-11 08:50:00,67.8,67.8,29.15,SW,232,0.0,0.0,100,0.00,,---,0.00,VWS V14.01,2013-07-11 13:50:00,
2013-07-11 08:55:00,68.2,68.2,29.15,NNW,344,2.7,4.0,100,0.00,,---,0.00,VWS V14.01,2013-07-11 13:55:00,
2013-07-11 09:00:00,68.5,68.5,29.15,North,5,4.5,4.5,100,0.00,,---,0.00,VWS V14.01,2013-07-11 14:00:00,
2013-07-11 09:05:00,68.7,68.7,29.15,NW,317,3.1,3.1,100,0.00,,---,0.00,VWS V14.01,2013-07-11 14:05:00,
2013-07-11 09:10:00,69.1,68.8,29.15,West,279,0.0,0.0,99,0.00,,---,0.00,VWS V14.01,2013-07-11 14:10:00,
2013-07-11 09:15:00,69.4,69.2,29.15,WNW,299,0.0,0.0,99,0.00,,---,0.00,VWS V14.01,2013-07-11 14:15:00,
2013-07-11 09:20:00,69.6,69.3,29.15,NW,304,2.7,3.6,99,0.00,,---,0.00,VWS V14.01,2013-07-11 14:20:00,
2013-07-11 09:25:00,70.0,67.9,29.15,North,350,4.0,4.0,93,0.00,,---,0.00,VWS V14.01,2013-07-11 14:25:00,
2013-07-11 09:30:00,70.3,68.2,29.15,North,0,3.6,4.0,93,0.00,,---,0.00,VWS V14.01,2013-07-11 14:30:00,
2013-07-11 09:35:00,70.7,64.6,29.15,NW,306,0.0,2.2,81,0.00,,---,0.00,VWS V14.01,2013-07-11 14:35:00,
2013-07-11 09:40:00,71.1,62.7,29.15,North,350,2.7,3.6,75,0.00,,---,0.00,VWS V14.01,2013-07-11 14:40:00,
2013-07-11 09:46:00,71.2,65.1,29.15,NE,41,3.6,4.9,81,0.00,,---,0.00,VWS V14.01,2013-07-11 14:46:00,
2013-07-11 09:51:00,71.4,61.9,29.15,North,7,5.4,5.4,72,0.00,,---,0.00,VWS V14.01,2013-07-11 14:51:00,
2013-07-11 09:56:00,71.6,64.4,29.15,NE,48,2.7,3.1,78,0.00,,---,0.00,VWS V14.01,2013-07-11 14:56:00,
2013-07-11 10:01:00,71.6,62.1,29.15,North,7,5.8,5.8,72,0.00,,---,0.00,VWS V14.01,2013-07-11 15:01:00,
2013-07-11 10:06:00,72.0,62.5,29.15,North,353,4.0,4.0,72,0.00,,---,0.00,VWS V14.01,2013-07-11 15:06:00,
2013-07-11 10:11:00,72.0,60.0,29.15,North,0,2.2,2.2,66,0.00,,---,0.00,VWS V14.01,2013-07-11 15:11:00,
2013-07-11 10:16:00,72.3,60.3,29.15,ENE,63,6.3,6.3,66,0.00,,---,0.00,VWS V14.01,2013-07-11 15:16:00,
2013-07-11 10:21:00,72.5,59.2,29.15,NW,320,2.7,2.7,63,0.00,,---,0.00,VWS V14.01,2013-07-11 15:21:00,
2013-07-11 10:26:00,72.7,59.4,29.15,NE,35,0.0,2.7,63,0.00,,---,0.00,VWS V14.01,2013-07-11 15:26:00,
2013-07-11 10:32:00,72.9,52.0,29.15,North,349,2.2,2.2,48,0.00,,---,0.00,VWS V14.01,2013-07-11 15:32:00,
2013-07-11 10:37:00,73.0,56.9,29.15,NW,320,0.0,0.0,57,0.00,,---,0.00,VWS V14.01,2013-07-11 15:37:00,
2013-07-11 10:42:00,73.6,55.9,29.15,East,87,5.4,5.4,54,0.00,,---,0.00,VWS V14.01,2013-07-11 15:42:00,
2013-07-11 10:47:00,74.5,53.5,29.15,East,97,0.0,2.7,48,0.00,,---,0.00,VWS V14.01,2013-07-11 15:47:00,
2013-07-11 10:52:00,75.2,52.4,29.15,SE,136,0.0,3.1,45,0.00,,---,0.00,VWS V14.01,2013-07-11 15:52:00,
2013-07-11 10:57:00,76.1,53.2,29.15,NE,52,4.9,4.9,45,0.00,,---,0.00,VWS V14.01,2013-07-11 15:57:00,
2013-07-11 11:02:00,77.4,54.4,29.15,NE,39,5.4,5.4,45,0.00,,---,0.00,VWS V14.01,2013-07-11 16:02:00,
2013-07-11 11:07:00,78.3,51.3,29.15,ENE,66,2.7,3.6,39,0.00,,---,0.00,VWS V14.01,2013-07-11 16:07:00,
2013-07-11 11:12:00,79.2,49.9,29.15,East,100,0.0,3.6,36,0.00,,---,0.00,VWS V14.01,2013-07-11 16:12:00,
2013-07-11 11:17:00,80.1,50.7,29.15,NW,312,0.0,0.0,36,0.00,,---,0.00,VWS V14.01,2013-07-11 16:17:00,
2013-07-11 11:23:00,81.0,51.5,29.15,South,185,2.2,2.2,36,0.00,,---,0.00,VWS V14.01,2013-07-11 16:23:00,
2013-07-11 11:28:00,81.5,52.0,29.15,East,81,4.9,4.9,36,0.00,,---,0.00,VWS V14.01,2013-07-11 16:28:00,
2013-07-11 11:33:00,82.0,52.5,29.15,ESE,106,0.0,0.0,36,0.00,,---,0.00,VWS V14.01,2013-07-11 16:33:00,
2013-07-11 11:38:00,82.2,52.6,29.15,SSW,197,0.0,0.0,36,0.00,,---,0.00,VWS V14.01,2013-07-11 16:38:00,
2013-07-11 11:43:00,82.2,52.6,29.15,ENE,76,3.1,3.1,36,0.00,,---,0.00,VWS V14.01,2013-07-11 16:43:00,
2013-07-11 11:48:00,82.8,50.8,29.15,East,99,0.0,3.6,33,0.00,,---,0.00,VWS V14.01,2013-07-11 16:48:00,
2013-07-11 11:53:00,82.9,50.9,29.15,ENE,76,6.3,6.3,33,0.00,,---,0.00,VWS V14.01,2013-07-11 16:53:00,
2013-07-11 11:59:00,82.9,50.9,29.15,NE,56,2.7,4.9,33,0.00,,---,0.00,VWS V14.01,2013-07-11 16:59:00,
2013-07-11 12:04:00,82.9,50.9,29.15,North,357,2.2,4.9,33,0.00,,---,0.00,VWS V14.01,2013-07-11 17:04:00,
2013-07-11 12:09:00,82.6,50.6,29.15,ENE,58,0.0,0.0,33,0.00,,---,0.00,VWS V14.01,2013-07-11 17:09:00,
2013-07-11 12:14:00,81.9,52.3,29.15,SSW,201,0.0,0.0,36,0.00,,---,0.00,VWS V14.01,2013-07-11 17:14:00,
2013-07-11 12:19:00,80.6,51.2,29.15,SSW,201,0.0,0.0,36,0.00,,---,0.00,VWS V14.01,2013-07-11 17:19:00,
2013-07-11 12:24:00,78.8,49.6,29.15,East,79,0.0,0.0,36,0.00,,---,0.00,VWS V14.01,2013-07-11 17:24:00,
2013-07-11 12:30:00,78.4,51.5,29.15,East,96,0.0,0.0,39,0.00,,---,0.00,VWS V14.01,2013-07-11 17:30:00,
2013-07-11 12:35:00,79.2,49.9,29.15,West,278,3.1,3.6,36,0.00,,---,0.00,VWS V14.01,2013-07-11 17:35:00,
2013-07-11 12:40:00,80.8,51.4,29.15,East,100,5.8,5.8,36,0.00,,---,0.00,VWS V14.01,2013-07-11 17:40:00,
2013-07-11 12:45:00,82.4,50.4,29.15,NE,50,2.7,2.7,33,0.00,,---,0.00,VWS V14.01,2013-07-11 17:45:00,
2013-07-11 12:50:00,83.3,51.2,29.15,ESE,103,5.8,5.8,33,0.00,,---,0.00,VWS V14.01,2013-07-11 17:50:00,
2013-07-11 12:55:00,83.3,51.2,29.15,West,275,4.0,4.0,33,0.00,,---,0.00,VWS V14.01,2013-07-11 17:55:00,
2013-07-11 13:00:00,82.8,50.8,29.15,NW,317,2.2,2.2,33,0.00,,---,0.00,VWS V14.01,2013-07-11 18:00:00,
2013-07-11 13:05:00,82.9,50.9,29.15,WSW,244,0.0,0.0,33,0.00,,---,0.00,VWS V14.01,2013-07-11 18:05:00,
2013-07-11 13:10:00,83.1,51.1,29.15,North,350,4.0,4.5,33,0.00,,---,0.00,VWS V14.01,2013-07-11 18:10:00,
2013-07-11 13:15:00,82.8,50.8,29.15,ENE,70,5.4,5.4,33,0.00,,---,0.00,VWS V14.01,2013-07-11 18:15:00,
2013-07-11 13:21:00,82.6,50.6,29.15,ENE,74,5.4,6.3,33,0.00,,---,0.00,VWS V14.01,2013-07-11 18:21:00,
2013-07-11 13:26:00,82.2,52.6,29.15,NE,52,4.0,5.4,36,0.00,,---,0.00,VWS V14.01,2013-07-11 18:26:00,
2013-07-11 13:31:00,82.0,52.5,29.15,ENE,63,5.8,5.8,36,0.00,,---,0.00,VWS V14.01,2013-07-11 18:31:00,
2013-07-11 13:36:00,82.6,50.6,29.15,NE,40,5.4,5.4,33,0.00,,---,0.00,VWS V14.01,2013-07-11 18:36:00,
2013-07-11 13:41:00,81.7,52.2,29.15,ENE,75,2.7,4.0,36,0.00,,---,0.00,VWS V14.01,2013-07-11 18:41:00,
2013-07-11 13:46:00,81.9,52.3,29.15,SSE,151,0.0,0.0,36,0.00,,---,0.00,VWS V14.01,2013-07-11 18:46:00,
2013-07-11 13:51:00,81.9,52.3,29.15,ENE,71,4.9,4.9,36,0.00,,---,0.00,VWS V14.01,2013-07-11 18:51:00,
2013-07-11 13:56:00,82.0,52.5,29.15,NE,35,4.0,4.0,36,0.00,,---,0.00,VWS V14.01,2013-07-11 18:56:00,
2013-07-11 14:01:00,82.4,50.4,29.15,NW,324,3.1,3.1,33,0.00,,---,0.00,VWS V14.01,2013-07-11 19:01:00,
2013-07-11 14:06:00,82.2,52.6,29.15,NNE,29,5.4,5.4,36,0.00,,---,0.00,VWS V14.01,2013-07-11 19:06:00,
2013-07-11 14:11:00,82.0,52.5,29.15,ENE,63,0.0,3.1,36,0.00,,---,0.00,VWS V14.01,2013-07-11 19:11:00,
2013-07-11 14:16:00,81.5,52.0,29.15,NNW,341,3.1,3.6,36,0.00,,---,0.00,VWS V14.01,2013-07-11 19:16:00,
2013-07-11 14:21:00,81.7,52.2,29.15,NE,37,3.6,4.9,36,0.00,,---,0.00,VWS V14.01,2013-07-11 19:21:00,
2013-07-11 14:27:00,81.7,52.2,29.15,ESE,116,5.4,5.4,36,0.00,,---,0.00,VWS V14.01,2013-07-11 19:27:00,
2013-07-11 14:31:00,81.5,52.0,29.15,SSW,201,0.0,3.6,36,0.00,,---,0.00,VWS V14.01,2013-07-11 19:31:00,
2013-07-11 14:37:00,81.3,51.8,29.15,North,350,3.1,3.1,36,0.00,,---,0.00,VWS V14.01,2013-07-11 19:37:00,
2013-07-11 14:42:00,81.3,51.8,29.15,South,171,0.0,0.0,36,0.00,,---,0.00,VWS V14.01,2013-07-11 19:42:00,
2013-07-11 14:47:00,81.1,51.7,29.15,NW,325,3.1,3.1,36,0.00,,---,0.00,VWS V14.01,2013-07-11 19:47:00,
2013-07-11 14:52:00,81.1,51.7,29.15,NNW,342,4.5,4.5,36,0.00,,---,0.00,VWS V14.01,2013-07-11 19:52:00,
2013-07-11 14:57:00,81.0,51.5,29.15,SW,223,2.7,2.7,36,0.00,,---,0.00,VWS V14.01,2013-07-11 19:57:00,
2013-07-11 15:02:00,80.2,46.0,29.12,WSW,258,0.0,2.2,30,0.00,,---,0.00,VWS V14.01,2013-07-11 20:02:00,
2013-07-11 15:07:00,80.2,50.9,29.12,North,8,0.0,0.0,36,0.00,,---,0.00,VWS V14.01,2013-07-11 20:07:00,
2013-07-11 15:12:00,80.4,51.0,29.12,SW,224,4.0,4.0,36,0.00,,---,0.00,VWS V14.01,2013-07-11 20:12:00,
2013-07-11 15:17:00,80.1,50.7,29.12,WSW,253,3.1,5.4,36,0.00,,---,0.00,VWS V14.01,2013-07-11 20:17:00,
2013-07-11 15:22:00,79.9,50.6,29.12,West,281,3.6,3.6,36,0.00,,---,0.00,VWS V14.01,2013-07-11 20:22:00,
2013-07-11 15:28:00,79.9,50.6,29.12,WNW,297,3.6,3.6,36,0.00,,---,0.00,VWS V14.01,2013-07-11 20:28:00,
2013-07-11 15:33:00,79.9,50.6,29.12,SSE,158,3.6,4.0,36,0.00,,---,0.00,VWS V14.01,2013-07-11 20:33:00,
2013-07-11 15:38:00,79.7,50.4,29.12,NW,305,2.2,2.2,36,0.00,,---,0.00,VWS V14.01,2013-07-11 20:38:00,
2013-07-11 15:43:00,79.7,50.4,29.12,SW,221,2.2,3.1,36,0.00,,---,0.00,VWS V14.01,2013-07-11 20:43:00,
2013-07-11 15:48:00,79.3,50.1,29.12,NNW,346,2.7,3.1,36,0.00,,---,0.00,VWS V14.01,2013-07-11 20:48:00,
2013-07-11 15:53:00,79.2,49.9,29.12,East,86,6.3,6.3,36,0.00,,---,0.00,VWS V14.01,2013-07-11 20:53:00,
2013-07-11 15:58:00,79.3,50.1,29.12,ESE,105,4.0,4.0,36,0.00,,---,0.00,VWS V14.01,2013-07-11 20:58:00,
2013-07-11 16:03:00,79.2,49.9,29.12,SSW,199,3.6,4.0,36,0.00,,---,0.00,VWS V14.01,2013-07-11 21:03:00,
2013-07-11 16:08:00,79.2,49.9,29.12,ESE,118,0.0,3.1,36,0.00,,---,0.00,VWS V14.01,2013-07-11 21:08:00,
2013-07-11 16:13:00,79.3,50.1,29.12,East,97,5.4,5.4,36,0.00,,---,0.00,VWS V14.01,2013-07-11 21:13:00,
2013-07-11 16:18:00,79.0,49.8,29.12,NE,46,3.1,4.9,36,0.00,,---,0.00,VWS V14.01,2013-07-11 21:18:00,
2013-07-11 16:23:00,79.2,49.9,29.12,ENE,76,3.6,3.6,36,0.00,,---,0.00,VWS V14.01,2013-07-11 21:23:00,
2013-07-11 16:28:00,79.2,49.9,29.12,NE,55,3.1,4.9,36,0.00,,---,0.00,VWS V14.01,2013-07-11 21:28:00,
2013-07-11 16:34:00,79.2,49.9,29.12,ESE,102,6.3,7.6,36,0.00,,---,0.00,VWS V14.01,2013-07-11 21:34:00,
2013-07-11 16:39:00,78.8,49.6,29.12,ENE,64,0.0,0.0,36,0.00,,---,0.00,VWS V14.01,2013-07-11 21:39:00,
2013-07-11 16:44:00,77.9,51.0,29.12,SE,131,0.0,0.0,39,0.00,,---,0.00,VWS V14.01,2013-07-11 21:44:00,
2013-07-11 16:49:00,77.5,50.7,29.12,ESE,110,0.0,0.0,39,0.00,,---,0.00,VWS V14.01,2013-07-11 21:49:00,
2013-07-11 16:54:00,77.5,50.7,29.12,WSW,237,0.0,0.0,39,0.00,,---,0.00,VWS V14.01,2013-07-11 21:54:00,
2013-07-11 16:59:00,77.2,50.3,29.12,SSE,149,2.7,3.1,39,0.00,,---,0.00,VWS V14.01,2013-07-11 21:59:00,
2013-07-11 17:04:00,77.0,50.2,29.12,SE,131,0.0,0.0,39,0.00,,---,0.00,VWS V14.01,2013-07-11 22:04:00,
2013-07-11 17:09:00,77.2,50.3,29.12,SW,229,3.6,3.6,39,0.00,,---,0.00,VWS V14.01,2013-07-11 22:09:00,
2013-07-11 17:14:00,77.2,50.3,29.12,ENE,76,2.2,3.1,39,0.00,,---,0.00,VWS V14.01,2013-07-11 22:14:00,
2013-07-11 17:19:00,77.0,50.2,29.12,NW,317,2.2,2.7,39,0.00,,---,0.00,VWS V14.01,2013-07-11 22:19:00,
2013-07-11 17:24:00,77.0,50.2,29.12,SSW,207,0.0,0.0,39,0.00,,---,0.00,VWS V14.01,2013-07-11 22:24:00,
2013-07-11 17:29:00,77.4,50.5,29.12,SW,235,0.0,0.0,39,0.00,,---,0.00,VWS V14.01,2013-07-11 22:29:00,
2013-07-11 17:35:00,77.2,50.3,29.12,South,190,0.0,0.0,39,0.00,,---,0.00,VWS V14.01,2013-07-11 22:35:00,
2013-07-11 17:40:00,77.4,50.5,29.12,NW,304,2.2,3.1,39,0.00,,---,0.00,VWS V14.01,2013-07-11 22:40:00,
2013-07-11 17:45:00,77.5,50.7,29.12,NE,50,0.0,0.0,39,0.00,,---,0.00,VWS V14.01,2013-07-11 22:45:00,
2013-07-11 17:50:00,77.4,50.5,29.12,WSW,257,0.0,2.7,39,0.00,,---,0.00,VWS V14.01,2013-07-11 22:50:00,
2013-07-11 17:55:00,77.4,50.5,29.12,West,265,3.1,4.0,39,0.00,,---,0.00,VWS V14.01,2013-07-11 22:55:00,
2013-07-11 18:00:00,77.2,50.3,29.12,ESE,122,0.0,0.0,39,0.00,,---,0.00,VWS V14.01,2013-07-11 23:00:00,
2013-07-11 18:05:00,77.4,50.5,29.12,WSW,249,0.0,0.0,39,0.00,,---,0.00,VWS V14.01,2013-07-11 23:05:00,
2013-07-11 18:10:00,77.2,50.3,29.12,NW,320,3.1,3.1,39,0.00,,---,0.00,VWS V14.01,2013-07-11 23:10:00,
2013-07-11 18:15:00,77.4,50.5,29.12,NE,50,2.7,3.6,39,0.00,,---,0.00,VWS V14.01,2013-07-11 23:15:00,
2013-07-11 18:20:00,77.4,50.5,29.12,NW,324,0.0,0.0,39,0.00,,---,0.00,VWS V14.01,2013-07-11 23:20:00,
2013-07-11 18:25:00,77.4,50.5,29.12,West,278,0.0,0.0,39,0.00,,---,0.00,VWS V14.01,2013-07-11 23:25:00,
2013-07-11 18:30:00,77.4,50.5,29.12,West,268,0.0,2.7,39,0.00,,---,0.00,VWS V14.01,2013-07-11 23:30:00,
2013-07-11 18:35:00,77.5,50.7,29.12,NE,56,0.0,0.0,39,0.00,,---,0.00,VWS V14.01,2013-07-11 23:35:00,
2013-07-11 18:40:00,77.2,50.3,29.12,ENE,58,0.0,0.0,39,0.00,,---,0.00,VWS V14.01,2013-07-11 23:40:00,
2013-07-11 18:45:00,77.0,50.2,29.12,ESE,110,0.0,2.7,39,0.00,,---,0.00,VWS V14.01,2013-07-11 23:45:00,
2013-07-11 18:50:00,77.0,54.1,29.12,East,100,0.0,2.2,45,0.00,,---,0.00,VWS V14.01,2013-07-11 23:50:00,
2013-07-11 18:55:00,76.6,49.8,29.12,WSW,238,0.0,0.0,39,0.00,,---,0.00,VWS V14.01,2013-07-11 23:55:00,
2013-07-11 19:01:00,76.5,49.7,29.12,WSW,253,0.0,2.7,39,0.00,,---,0.00,VWS V14.01,2013-07-12 00:01:00,
2013-07-11 19:06:00,76.3,49.5,29.12,WNW,285,0.0,3.1,39,0.00,,---,0.00,VWS V14.01,2013-07-12 00:06:00,
2013-07-11 19:11:00,76.3,49.5,29.12,South,180,0.0,0.0,39,0.00,,---,0.00,VWS V14.01,2013-07-12 00:11:00,
2013-07-11 19:16:00,75.9,53.1,29.12,WSW,242,0.0,0.0,45,0.00,,---,0.00,VWS V14.01,2013-07-12 00:16:00,
2013-07-11 19:21:00,75.6,52.8,29.12,NNW,330,0.0,0.0,45,0.00,,---,0.00,VWS V14.01,2013-07-12 00:21:00,
2013-07-11 19:26:00,75.4,48.7,29.12,WSW,258,2.7,2.7,39,0.00,,---,0.00,VWS V14.01,2013-07-12 00:26:00,
2013-07-11 19:31:00,75.2,48.6,29.12,SW,227,2.7,2.7,39,0.00,,---,0.00,VWS V14.01,2013-07-12 00:31:00,
2013-07-11 19:36:00,75.2,48.6,29.12,WNW,290,0.0,0.0,39,0.00,,---,0.00,VWS V14.01,2013-07-12 00:36:00,
2013-07-11 19:41:00,74.8,48.2,29.12,WNW,282,0.0,0.0,39,0.00,,---,0.00,VWS V14.01,2013-07-12 00:41:00,
2013-07-11 19:46:00,74.5,53.5,29.12,NNW,327,0.0,0.0,48,0.00,,---,0.00,VWS V14.01,2013-07-12 00:46:00,
2013-07-11 19:51:00,74.1,60.7,29.12,South,171,0.0,0.0,63,0.00,,---,0.00,VWS V14.01,2013-07-12 00:51:00,
2013-07-11 19:56:00,73.6,60.2,29.12,South,171,0.0,0.0,63,0.00,,---,0.00,VWS V14.01,2013-07-12 00:56:00,
2013-07-11 20:01:00,73.0,61.0,29.12,South,171,0.0,0.0,66,0.00,,---,0.00,VWS V14.01,2013-07-12 01:01:00,
2013-07-11 20:06:00,72.7,61.9,29.12,South,171,0.0,0.0,69,0.00,,---,0.00,VWS V14.01,2013-07-12 01:06:00,
2013-07-11 20:11:00,72.1,60.2,29.12,SW,231,0.0,0.0,66,0.00,,---,0.00,VWS V14.01,2013-07-12 01:11:00,
2013-07-11 20:16:00,71.8,59.8,29.09,North,2,0.0,0.0,66,0.00,,---,0.00,VWS V14.01,2013-07-12 01:16:00,
2013-07-11 20:21:00,71.4,59.5,29.09,WSW,257,0.0,0.0,66,0.00,,---,0.00,VWS V14.01,2013-07-12 01:21:00,
2013-07-11 20:26:00,70.9,59.0,29.09,WSW,257,0.0,0.0,66,0.00,,---,0.00,VWS V14.01,2013-07-12 01:26:00,
2013-07-11 20:31:00,70.5,58.6,29.12,West,269,0.0,0.0,66,0.00,,---,0.00,VWS V14.01,2013-07-12 01:31:00,
2013-07-11 20:36:00,70.2,59.5,29.12,West,269,0.0,0.0,69,0.00,,---,0.00,VWS V14.01,2013-07-12 01:36:00,
2013-07-11 20:41:00,69.6,59.0,29.12,West,269,0.0,0.0,69,0.00,,---,0.00,VWS V14.01,2013-07-12 01:41:00,
2013-07-11 20:46:00,69.3,58.7,29.12,West,269,0.0,0.0,69,0.00,,---,0.00,VWS V14.01,2013-07-12 01:46:00,
2013-07-11 20:51:00,68.9,58.3,29.12,West,269,0.0,0.0,69,0.00,,---,0.00,VWS V14.01,2013-07-12 01:51:00,
2013-07-11 20:56:00,68.5,59.2,29.12,West,269,0.0,0.0,72,0.00,,---,0.00,VWS V14.01,2013-07-12 01:56:00,
2013-07-11 21:01:00,68.4,60.1,29.12,West,269,0.0,0.0,75,0.00,,---,0.00,VWS V14.01,2013-07-12 02:01:00,
2013-07-11 21:07:00,68.0,58.7,29.12,West,269,0.0,0.0,72,0.00,,---,0.00,VWS V14.01,2013-07-12 02:07:00,
2013-07-11 21:12:00,67.6,59.4,29.12,West,269,0.0,0.0,75,0.00,,---,0.00,VWS V14.01,2013-07-12 02:12:00,
2013-07-11 21:17:00,67.3,60.2,29.12,West,269,0.0,0.0,78,0.00,,---,0.00,VWS V14.01,2013-07-12 02:17:00,
2013-07-11 21:22:00,66.9,60.9,29.12,West,269,0.0,0.0,81,0.00,,---,0.00,VWS V14.01,2013-07-12 02:22:00,
2013-07-11 21:27:00,66.7,60.7,29.12,West,269,0.0,0.0,81,0.00,,---,0.00,VWS V14.01,2013-07-12 02:27:00,
2013-07-11 21:32:00,66.2,61.2,29.12,West,269,0.0,0.0,84,0.00,,---,0.00,VWS V14.01,2013-07-12 02:32:00,
2013-07-11 21:37:00,65.8,62.8,29.12,West,269,0.0,0.0,90,0.00,,---,0.00,VWS V14.01,2013-07-12 02:37:00,
2013-07-11 21:42:00,65.5,63.4,29.12,West,269,0.0,0.0,93,0.00,,---,0.00,VWS V14.01,2013-07-12 02:42:00,
2013-07-11 21:47:00,65.1,64.8,29.12,West,269,0.0,0.0,99,0.00,,---,0.00,VWS V14.01,2013-07-12 02:47:00,
2013-07-11 21:52:00,64.8,64.8,29.12,West,269,0.0,0.0,100,0.00,,---,0.00,VWS V14.01,2013-07-12 02:52:00,
2013-07-11 21:57:00,64.8,64.8,29.12,West,269,0.0,0.0,100,0.00,,---,0.00,VWS V14.01,2013-07-12 02:57:00,
2013-07-11 22:02:00,64.4,64.4,29.12,West,269,0.0,0.0,100,0.00,,---,0.00,VWS V14.01,2013-07-12 03:02:00,
2013-07-11 22:08:00,64.2,64.2,29.12,West,269,0.0,0.0,100,0.00,,---,0.00,VWS V14.01,2013-07-12 03:08:00,
2013-07-11 22:13:00,64.0,64.0,29.12,West,269,0.0,0.0,100,0.00,,---,0.00,VWS V14.01,2013-07-12 03:13:00,
2013-07-11 22:18:00,63.7,63.7,29.12,West,269,0.0,0.0,100,0.00,,---,0.00,VWS V14.01,2013-07-12 03:18:00,
2013-07-11 22:23:00,63.5,63.5,29.12,West,269,0.0,0.0,100,0.00,,---,0.00,VWS V14.01,2013-07-12 03:23:00,
2013-07-11 22:28:00,63.3,63.3,29.12,West,269,0.0,0.0,100,0.00,,---,0.00,VWS V14.01,2013-07-12 03:28:00,
2013-07-11 22:33:00,63.1,63.1,29.12,West,269,0.0,0.0,100,0.00,,---,0.00,VWS V14.01,2013-07-12 03:33:00,
2013-07-11 22:38:00,63.0,63.0,29.12,West,269,0.0,0.0,100,0.00,,---,0.00,VWS V14.01,2013-07-12 03:38:00,
2013-07-11 22:43:00,62.6,62.6,29.12,West,269,0.0,0.0,100,0.00,,---,0.00,VWS V14.01,2013-07-12 03:43:00,
2013-07-11 22:48:00,62.4,62.4,29.12,West,269,0.0,0.0,100,0.00,,---,0.00,VWS V14.01,2013-07-12 03:48:00,
2013-07-11 22:53:00,62.2,62.2,29.12,West,269,0.0,0.0,100,0.00,,---,0.00,VWS V14.01,2013-07-12 03:53:00,
2013-07-11 22:58:00,62.1,62.1,29.12,West,269,0.0,0.0,100,0.00,,---,0.00,VWS V14.01,2013-07-12 03:58:00,
2013-07-11 23:01:00,62.1,62.1,29.12,West,269,0.0,0.0,100,0.00,,---,0.00,VWS V14.01,2013-07-12 04:01:00,
2013-07-11 23:06:00,61.9,61.9,29.12,West,269,0.0,0.0,100,0.00,,---,0.00,VWS V14.01,2013-07-12 04:06:00,
2013-07-11 23:11:00,61.7,61.7,29.12,West,269,0.0,0.0,100,0.00,,---,0.00,VWS V14.01,2013-07-12 04:11:00,
2013-07-11 23:16:00,61.5,61.5,29.12,West,269,0.0,0.0,100,0.00,,---,0.00,VWS V14.01,2013-07-12 04:16:00,
2013-07-11 23:21:00,61.3,61.3,29.12,West,269,0.0,0.0,100,0.00,,---,0.00,VWS V14.01,2013-07-12 04:21:00,
2013-07-11 23:26:00,61.2,61.2,29.12,West,269,0.0,0.0,100,0.00,,---,0.00,VWS V14.01,2013-07-12 04:26:00,
2013-07-11 23:31:00,61.0,61.0,29.12,West,269,0.0,0.0,100,0.00,,---,0.00,VWS V14.01,2013-07-12 04:31:00,
2013-07-11 23:36:00,60.8,60.8,29.12,West,269,0.0,0.0,100,0.00,,---,0.00,VWS V14.01,2013-07-12 04:36:00,
2013-07-11 23:41:00,60.6,60.6,29.12,West,269,0.0,0.0,100,0.00,,---,0.00,VWS V14.01,2013-07-12 04:41:00,
2013-07-11 23:46:00,60.4,60.4,29.12,West,269,0.0,0.0,100,0.00,,---,0.00,VWS V14.01,2013-07-12 04:46:00,
2013-07-11 23:51:00,60.4,60.4,29.12,West,269,0.0,0.0,100,0.00,,---,0.00,VWS V14.01,2013-07-12 04:51:00,
2013-07-11 23:56:00,60.3,60.3,29.12,West,269,0.0,0.0,100,0.00,,---,0.00,VWS V14.01,2013-07-12 04:56:00,